Regional Weather Roundup
Issued by NWS

Home | Current Version | Previous Version | Graphics & Text | Print | Product List | Glossary On
Versions: 1 2 3 4 5 6 7 8 9 10 11 12 13 14 15 16 17 18 19 20 21 22 23 24 25 26 27 28 29 30 31 32 33 34 35 36 37 38 39 40 41 42 43 44 45 46 47 48 49 50
000
ASUS45 KPSR 251600
RWRAZ

PRELIMINARY ARIZONA REGIONAL HOURLY WEATHER ROUNDUP
NATIONAL WEATHER SERVICE PHOENIX AZ
900 AM MST FRI JUL 25 2014

NOTE: FAIR INDICATES FEW OR NO CLOUDS BELOW 12,000 FEET WITH NO
SIGNIFICANT WEATHER AND/OR OBSTRUCTIONS TO VISIBILITY.

AZZ001>003-036-251700-
NORTHWEST ARIZONA

CITY           SKY/WX    TMP DP  RH WIND       PRES   REMARKS
KINGMAN        CLOUDY    87  52  29 W3        30.06R
$$

AZZ004>008-015-016-018-251700-
NORTH CENTRAL ARIZONA

CITY           SKY/WX    TMP DP  RH WIND       PRES   REMARKS
GRAND CANYON   MOSUNNY   77  50  38 SW6       30.33S
WILLIAMS       SUNNY     77  50  38 SW7       30.40R
PRESCOTT       SUNNY     83  52  34 CALM      30.22R
FLAGSTAFF      SUNNY     73  49  42 CALM      30.37S
PAYSON         SUNNY     81  54  39 CALM      30.25R
PAGE           PTSUNNY   89  49  25 W5        30.12R
$$

AZZ009>014-017-251700-
NORTHEAST ARIZONA

CITY           SKY/WX    TMP DP  RH WIND       PRES   REMARKS
WINSLOW        NOT AVBL
SAINT JOHNS    SUNNY     82  44  26 CALM      30.26S
WINDOW ROCK    SUNNY     82  45  27 VRB3      30.34F
$$

AZZ023-251700-
GREATER PHOENIX AREA

CITY           SKY/WX    TMP DP  RH WIND       PRES   REMARKS
PHOENIX        SUNNY     95  65  37 SE9       29.90F
BUCKEYE          N/A     95  63  34 E10       29.92S
GLENDALE       SUNNY     97  64  34 VRB5      29.92S
DEER VALLEY    SUNNY     93  64  38 SE10      29.93S
SCOTTSDALE     SUNNY     94  64  37 VRB5      29.96R
MESA-GATEWAY   MOSUNNY   93  61  33 SE7       29.96S
CHANDLER       SUNNY     95  66  38 E6        29.93S
$$

AZZ027-028-251700-
SOUTHWEST MARICOPA COUNTY AND PINAL COUNTY

CITY           SKY/WX    TMP DP  RH WIND       PRES   REMARKS
CASA GRANDE    SUNNY     93  63  36 S9        29.96S
GILA BEND      SUNNY     99  61  28 S3        29.92R
$$

AZZ503-504-507>509-251700-
SOUTHEAST ARIZONA

CITY           SKY/WX    TMP DP  RH WIND       PRES   REMARKS
TUCSON         SUNNY     90  63  40 S10       30.06R
DAVIS-MONTHAN  SUNNY     89  64  43 E5        30.04S
RYAN FIELD       N/A     90  64  43 NE5       30.04R
NOGALES        CLOUDY    84  64  50 S6        30.14S
SIERRA VISTA   MOSUNNY   82  63  51 E6        30.21S DUST
SAFFORD        SUNNY     89  52  28 S3        30.06S
$$

AZZ020-021-025-026-031-251700-
SOUTHWEST ARIZONA

CITY           SKY/WX    TMP DP  RH WIND       PRES   REMARKS
YUMA           MOSUNNY   96  71  44 S18G25    29.83R HX 103
$$

CAZ031-033-041-043-047-048-061-251700-
SOUTHERN CALIFORNIA

CITY           SKY/WX    TMP DP  RH WIND       PRES   REMARKS
DOWNTOWN L.A.  MOSUNNY   77  64  64 VRB3      29.89R
L.A. AIRPORT   PTSUNNY   75  64  68 SE6       29.90R
SAN DIEGO      CLOUDY    72  63  73 VRB3      29.91R
BURBANK        SUNNY     72  63  73 VRB6      29.90S
ONTARIO        MOSUNNY   75  62  64 VRB3      29.91S
RIVERSIDE      MOSUNNY   74  63  68 CALM      29.91S
PALM SPRINGS   CLOUDY    89  59  36 NW5       29.87R
EL CENTRO NAS  MOSUNNY   95  72  47 SE14      29.79R HX 103
IMPERIAL       SUNNY     94  72  48 SE15      29.79R HX 102
BLYTHE         MOSUNNY   97  62  31 S16       29.84R
$$

NVZ020-UTZ003-251700-
SOUTHERN NEVADA-UTAH

CITY           SKY/WX    TMP DP  RH WIND       PRES   REMARKS
LAS VEGAS      NOT AVBL
SALT LAKE CITY MOSUNNY   77  42  28 NW6       30.06R
$$

NMZ009-TXZ055-251700-
NEW MEXICO-WEST TEXAS

CITY           SKY/WX    TMP DP  RH WIND       PRES   REMARKS
ALBUQUERQUE    SUNNY     82  42  24 S14       30.23F
EL PASO        SUNNY     85  52  32 S9        30.14S
$$


........................KEY........................
SKY/WX - SKY CONDITION/WEATHER
TMP    - TEMPERATURE IN FAHRENHEIT
DP     - DEW POINT IN FAHRENHEIT
RH     - RELATIVE HUMIDITY IN PERCENT
WIND   - DIRECTION AND SPEED IN MILES PER HOUR (MPH)
VRB    - VARIABLE WIND DIRECTION
PRES   - MEAN SEA LEVEL PRESSURE IN INCHES OF MERCURY
         F - FALLING PRESSURE   R - RISING PRESSURE
         S - STEADY PRESSURE
VSB    - VISIBILITY IN MILES
HX     - HEAT INDEX IN FAHRENHEIT
WCI    - WIND CHILL INDEX IN FAHRENHEIT
TC     - TEMPERATURE IN CELSIUS WHICH IS ALSO KNOWN AS
         TEMPERATURE IN CENTIGRADE
AFB    - AIR FORCE BASE
         LUKE AFB IS LUKE AIR FORCE BASE
         DAVIS-MONTHAN IS DAVIS-MONTHAN AIR FORCE BASE
NAS    - NAVAL AIR STATION
         EL CENTRO NAS IS EL CENTRO NAVAL AIR STATION
N/A    - NOT AVAILABLE



USA.gov is the U.S. government's official web portal to all federal, state and local government web resources and services.